• In Kazakhstan
  • List of Countries
  • For 7 days
  • Water Temperature
  • Satellite Maps
  • Weather Map
  • News
  • Weather Widgets
  • user-avatar
    Login

    Hourly Weather Kopanina

    Today, 20 April, Saturday

    Time Temperature Precipitation Wind Pressure Humidity
    00:00 +11°C° 0 mm 1 mps 750 mmHg 56%
    01:00 +11°C° 0 mm 1 mps 750 mmHg 55%
    02:00 +10°C° 0 mm 1 mps 750 mmHg 57%
    03:00 +10°C° 0 mm 1 mps 750 mmHg 59%
    04:00 +9°C° 0 mm 1 mps 750 mmHg 60%
    05:00 +10°C° 0 mm 1 mps 750 mmHg 59%
    06:00 +11°C° 0 mm 1 mps 750 mmHg 58%
    07:00 +12°C° 0 mm 2 mps 750 mmHg 55%
    08:00 +14°C° 0 mm 2 mps 750 mmHg 49%
    09:00 +16°C° 0 mm 2 mps 750 mmHg 42%
    10:00 +18°C° 0 mm 3 mps 749 mmHg 36%
    11:00 +19°C° 0 mm 3 mps 749 mmHg 34%
    12:00 +19°C° 0 mm 4 mps 749 mmHg 31%
    13:00 +21°C° 0 mm 4 mps 749 mmHg 29%
    14:00 +20°C° 0 mm 4 mps 748 mmHg 30%
    15:00 +20°C° 0 mm 4 mps 748 mmHg 31%
    16:00 +19°C° 0 mm 4 mps 748 mmHg 31%
    17:00 +18°C° 0 mm 4 mps 747 mmHg 36%
    18:00 +16°C° 0 mm 3 mps 747 mmHg 40%
    19:00 +14°C° 0 mm 2 mps 747 mmHg 44%
    20:00 +13°C° 0 mm 2 mps 747 mmHg 47%
    21:00 +12°C° 0 mm 2 mps 747 mmHg 50%
    22:00 +11°C° 0 mm 1 mps 747 mmHg 54%
    23:00 +10°C° 0 mm 1 mps 747 mmHg 57%

    Tomorrow, 21 April, Sunday

    Time Temperature Precipitation Wind Pressure Humidity
    00:00 +9°C° 0 mm 2 mps 747 mmHg 61%
    01:00 +8°C° 0 mm 2 mps 747 mmHg 65%
    02:00 +7°C° 0 mm 2 mps 747 mmHg 68%
    03:00 +7°C° 0 mm 2 mps 746 mmHg 71%
    04:00 +6°C° 0 mm 2 mps 746 mmHg 73%
    05:00 +7°C° 0 mm 2 mps 746 mmHg 70%
    06:00 +8°C° 0 mm 2 mps 746 mmHg 67%
    07:00 +9°C° 0 mm 2 mps 746 mmHg 63%
    08:00 +12°C° 0 mm 2 mps 746 mmHg 56%
    09:00 +13°C° 0 mm 3 mps 746 mmHg 49%
    10:00 +14°C° 0 mm 3 mps 746 mmHg 42%
    11:00 +16°C° 0 mm 3 mps 745 mmHg 39%
    12:00 +17°C° 0 mm 3 mps 745 mmHg 36%
    13:00 +18°C° 0 mm 3 mps 745 mmHg 33%
    14:00 +18°C° 0 mm 3 mps 744 mmHg 33%
    15:00 +18°C° 0 mm 3 mps 744 mmHg 33%
    16:00 +18°C° 0 mm 3 mps 743 mmHg 34%
    17:00 +16°C° 0 mm 2 mps 743 mmHg 39%
    18:00 +15°C° 0 mm 2 mps 742 mmHg 44%
    19:00 +13°C° 0 mm 2 mps 742 mmHg 49%
    20:00 +12°C° 0 mm 2 mps 742 mmHg 52%
    21:00 +10°C° 0 mm 2 mps 742 mmHg 54%
    22:00 +10°C° 0 mm 2 mps 742 mmHg 57%
    23:00 +9°C° 0 mm 2 mps 742 mmHg 59%

    Day after tomorrow, 22 April, Monday

    Time Temperature Precipitation Wind Pressure Humidity
    00:00 +8°C° 0 mm 2 mps 742 mmHg 62%
    01:00 +8°C° 0 mm 2 mps 741 mmHg 64%
    02:00 +7°C° 0 mm 2 mps 741 mmHg 69%
    03:00 +6°C° 0 mm 2 mps 741 mmHg 75%
    04:00 +6°C° 0 mm 2 mps 741 mmHg 80%
    05:00 +7°C° 0 mm 2 mps 741 mmHg 76%
    06:00 +8°C° 0 mm 3 mps 741 mmHg 73%
    07:00 +8°C° 0 mm 3 mps 741 mmHg 69%
    08:00 +10°C° 0 mm 4 mps 741 mmHg 61%
    09:00 +11°C° 0 mm 4 mps 741 mmHg 53%
    10:00 +13°C° 0 mm 4 mps 741 mmHg 45%
    11:00 +13°C° 0.1 mm 4 mps 741 mmHg 43%
    12:00 +14°C° 0.1 mm 4 mps 741 mmHg 41%
    13:00 +15°C° 0.1 mm 5 mps 740 mmHg 39%
    14:00 +15°C° 0 mm 5 mps 740 mmHg 40%
    15:00 +15°C° 0 mm 6 mps 740 mmHg 41%
    16:00 +16°C° 0 mm 7 mps 740 mmHg 42%
    17:00 +15°C° 0 mm 6 mps 740 mmHg 49%
    18:00 +13°C° 0 mm 5 mps 739 mmHg 56%
    19:00 +12°C° 0 mm 5 mps 739 mmHg 63%
    20:00 +10°C° 0 mm 5 mps 739 mmHg 64%
    21:00 +10°C° 0 mm 6 mps 739 mmHg 66%
    22:00 +9°C° 0 mm 6 mps 739 mmHg 68%
    23:00 +9°C° 0 mm 6 mps 739 mmHg 69%

    23 April, Tuesday

    Time Temperature Precipitation Wind Pressure Humidity
    00:00 +8°C° 0 mm 5 mps 739 mmHg 69%
    01:00 +8°C° 0 mm 5 mps 739 mmHg 70%
    02:00 +8°C° 0.1 mm 5 mps 739 mmHg 72%
    03:00 +8°C° 0.1 mm 5 mps 738 mmHg 74%
    04:00 +7°C° 0.1 mm 5 mps 738 mmHg 76%
    05:00 +8°C° 0 mm 5 mps 738 mmHg 75%
    06:00 +8°C° 0 mm 5 mps 738 mmHg 75%
    07:00 +9°C° 0 mm 6 mps 737 mmHg 75%
    08:00 +11°C° 0 mm 6 mps 738 mmHg 67%
    09:00 +14°C° 0 mm 6 mps 738 mmHg 59%
    10:00 +17°C° 0 mm 6 mps 738 mmHg 51%
    11:00 +17°C° 0.3 mm 6 mps 738 mmHg 51%
    12:00 +17°C° 0.3 mm 6 mps 738 mmHg 51%
    13:00 +19°C° 0.3 mm 6 mps 737 mmHg 51%
    14:00 +17°C° 0.3 mm 6 mps 737 mmHg 54%
    15:00 +16°C° 0.3 mm 6 mps 737 mmHg 57%
    16:00 +15°C° 0.3 mm 7 mps 737 mmHg 60%
    17:00 +14°C° 0.2 mm 6 mps 737 mmHg 65%
    18:00 +12°C° 0.2 mm 5 mps 737 mmHg 71%
    19:00 +10°C° 0.2 mm 5 mps 736 mmHg 77%
    20:00 +10°C° 0.1 mm 5 mps 736 mmHg 76%
    21:00 +11°C° 0.1 mm 4 mps 736 mmHg 75%
    22:00 +11°C° 0.1 mm 4 mps 736 mmHg 74%
    23:00 +11°C° 0 mm 4 mps 736 mmHg 75%

    24 April, Wednesday

    Time Temperature Precipitation Wind Pressure Humidity
    00:00 +10°C° 0 mm 4 mps 736 mmHg 75%
    01:00 +10°C° 0 mm 4 mps 736 mmHg 76%
    02:00 +10°C° 0 mm 4 mps 735 mmHg 77%
    03:00 +10°C° 0 mm 4 mps 735 mmHg 79%
    04:00 +8°C° 0 mm 5 mps 735 mmHg 80%
    05:00 +10°C° 0 mm 5 mps 736 mmHg 76%
    06:00 +12°C° 0 mm 5 mps 736 mmHg 73%
    07:00 +13°C° 0 mm 6 mps 736 mmHg 69%
    08:00 +15°C° 0 mm 6 mps 737 mmHg 64%
    09:00 +17°C° 0 mm 7 mps 737 mmHg 59%
    10:00 +21°C° 0 mm 7 mps 737 mmHg 53%
    11:00 +21°C° 0 mm 7 mps 738 mmHg 52%
    12:00 +21°C° 0 mm 7 mps 738 mmHg 51%
    13:00 +22°C° 0 mm 7 mps 738 mmHg 50%
    14:00 +21°C° 0 mm 6 mps 738 mmHg 53%
    15:00 +20°C° 0 mm 6 mps 738 mmHg 57%
    16:00 +19°C° 0 mm 5 mps 738 mmHg 60%
    17:00 +19°C° 0 mm 4 mps 738 mmHg 61%
    18:00 +18°C° 0 mm 4 mps 739 mmHg 63%
    19:00 +18°C° 0 mm 4 mps 739 mmHg 64%
    20:00 +17°C° 0 mm 4 mps 739 mmHg 66%
    21:00 +15°C° 0 mm 4 mps 739 mmHg 68%
    22:00 +14°C° 0 mm 4 mps 739 mmHg 70%
    23:00 +14°C° 0 mm 4 mps 739 mmHg 73%

    25 April, Thursday

    Time Temperature Precipitation Wind Pressure Humidity
    00:00 +14°C° 0 mm 4 mps 739 mmHg 76%
    01:00 +13°C° 0 mm 4 mps 738 mmHg 78%
    02:00 +13°C° 0 mm 3 mps 738 mmHg 80%
    03:00 +12°C° 0 mm 3 mps 738 mmHg 82%
    04:00 +12°C° 0 mm 3 mps 738 mmHg 84%
    05:00 +13°C° 0 mm 4 mps 739 mmHg 80%
    06:00 +14°C° 0 mm 4 mps 739 mmHg 76%
    07:00 +17°C° 0 mm 4 mps 739 mmHg 72%
    08:00 +17°C° 0 mm 5 mps 739 mmHg 68%
    09:00 +19°C° 0 mm 5 mps 739 mmHg 64%
    10:00 +20°C° 0 mm 5 mps 740 mmHg 60%
    11:00 +21°C° 0 mm 5 mps 740 mmHg 58%
    12:00 +21°C° 0 mm 6 mps 739 mmHg 56%
    13:00 +22°C° 0 mm 6 mps 739 mmHg 55%
    14:00 +22°C° 0 mm 6 mps 739 mmHg 55%
    15:00 +22°C° 0 mm 5 mps 739 mmHg 56%
    16:00 +22°C° 0 mm 5 mps 739 mmHg 56%
    17:00 +21°C° 0 mm 4 mps 738 mmHg 61%
    18:00 +20°C° 0 mm 3 mps 738 mmHg 67%
    19:00 +18°C° 0 mm 2 mps 738 mmHg 72%
    20:00 +18°C° 0 mm 3 mps 738 mmHg 72%
    21:00 +18°C° 0 mm 3 mps 738 mmHg 72%
    22:00 +17°C° 0 mm 4 mps 738 mmHg 72%
    23:00 +17°C° 0 mm 4 mps 737 mmHg 74%
    Show more